Location: Quedlinburg
(51.7921°N, 11.1414°E)
Time: 08:34:04
(UTC+01:00)

RS-15 - Visible Passes

Search period start: 11 March 2026 00:00
Search period end: 21 March 2026 00:00
Orbit: 1894 x 2151 km, 64.8° (Epoch: 10 March)

Date Brightness Start Highest point End Pass type
(mag) Time Alt. Az. Time Alt. Az. Time Alt. Az.
11 Mar 8.8 01:59:04 10° WNW 02:09:35 43° N 02:20:34 10° ENE visible
11 Mar 8.4 04:12:58 10° NW 04:24:19 67° NE 04:36:11 10° ESE visible
11 Mar 8.9 18:50:06 10° SE 18:55:49 16° E 19:01:34 10° ENE visible
11 Mar 7.8 20:54:55 10° SSW 21:05:29 60° ESE 21:16:23 10° NE visible
11 Mar 8.2 23:07:11 10° WSW 23:18:01 61° NNW 23:29:18 10° NE visible
12 Mar 8.8 01:22:28 10° WNW 01:32:55 43° N 01:43:49 10° ENE visible
12 Mar 8.5 03:36:45 10° NW 03:47:56 59° NNE 03:59:38 10° ESE visible
12 Mar 8.1 05:49:32 10° NW 06:00:47 66° WSW 06:12:34 10° SSE visible
12 Mar 8.0 20:19:32 10° S 20:29:43 48° ESE 20:40:10 10° NE visible
12 Mar 8.1 22:30:47 10° WSW 22:41:42 70° NW 22:53:04 10° NE visible
13 Mar 8.8 00:45:48 10° WNW 00:56:15 44° N 01:07:09 10° ENE visible
13 Mar 8.6 03:00:28 10° NW 03:11:29 53° NNE 03:22:59 10° ESE visible
13 Mar 8.1 05:13:25 10° NW 05:24:50 78° SW 05:36:48 10° SSE visible
13 Mar 8.2 19:44:26 10° S 19:54:03 39° ESE 20:03:53 10° NE visible
13 Mar 7.9 21:54:31 10° SW 22:05:29 80° NW 22:16:53 10° NE visible
14 Mar 8.7 00:09:06 10° W 00:19:37 46° NNW 00:30:35 10° ENE visible
14 Mar 8.7 02:24:07 10° NW 02:34:57 49° NNE 02:46:15 10° E visible
14 Mar 8.1 04:37:18 10° NW 04:48:47 89° NE 05:00:49 10° SE visible
14 Mar 8.5 19:09:40 10° SSE 19:18:29 30° ESE 19:27:29 10° NE visible
14 Mar 7.8 21:18:26 10° SW 21:29:22 87° SE 21:40:43 10° NE visible
14 Mar 8.6 23:32:26 10° W 23:43:02 49° NNW 23:54:05 10° NE visible
15 Mar 8.8 01:47:41 10° WNW 01:58:20 45° NNE 02:09:28 10° E visible
15 Mar 8.2 04:01:10 10° NW 04:12:37 78° NE 04:24:37 10° SE visible
15 Mar 8.7 18:35:21 10° SE 18:43:03 23° E 18:50:52 10° NE visible
15 Mar 7.8 20:42:33 10° SSW 20:53:22 74° SE 21:04:34 10° NE visible
15 Mar 8.5 22:55:48 10° WSW 23:06:31 54° NNW 23:17:41 10° NE visible
16 Mar 8.9 01:11:09 10° WNW 01:21:42 44° N 01:32:42 10° ENE visible
16 Mar 8.3 03:25:00 10° NW 03:36:22 68° NE 03:48:16 10° ESE visible
16 Mar 8.2 05:37:44 10° NW 05:48:38 53° WSW 06:00:01 10° S visible
16 Mar 7.9 20:06:52 10° SSW 20:17:28 62° ESE 20:28:24 10° NE visible
16 Mar 8.3 22:19:15 10° WSW 22:30:05 60° NNW 22:41:23 10° NE visible
17 Mar 8.9 00:34:33 10° WNW 00:45:02 43° N 00:55:57 10° ENE visible
17 Mar 8.5 02:48:47 10° NW 03:00:01 60° NNE 03:11:44 10° ESE visible
17 Mar 8.1 05:01:34 10° NW 05:12:48 64° WSW 05:24:32 10° SSE visible
17 Mar 8.0 19:31:27 10° S 19:41:41 50° ESE 19:52:13 10° NE visible
17 Mar 8.2 21:42:50 10° WSW 21:53:45 68° NW 22:05:08 10° NE visible
17 Mar 8.8 23:57:54 10° WNW 00:08:21 43° N 00:19:16 10° ENE visible
18 Mar 8.6 02:12:32 10° NW 02:23:34 54° NNE 02:35:06 10° ESE visible
18 Mar 8.0 04:25:26 10° NW 04:36:51 76° SW 04:48:48 10° SSE visible
18 Mar 8.3 18:56:18 10° S 19:06:00 40° ESE 19:15:57 10° NE visible
18 Mar 8.0 21:06:33 10° SW 21:17:30 79° NW 21:28:55 10° NE visible
18 Mar 8.8 23:21:13 10° W 23:31:43 45° NNW 23:42:40 10° ENE visible
19 Mar 8.7 01:36:11 10° NW 01:47:02 49° NNE 01:58:23 10° E visible
19 Mar 8.0 03:49:19 10° NW 04:00:49 89° SW 04:12:51 10° SE visible
19 Mar 7.9 20:30:26 10° SW 20:41:23 89° SE 20:52:45 10° NE visible
19 Mar 8.7 22:44:32 10° W 22:55:07 48° NNW 23:06:11 10° NE visible
20 Mar 8.8 00:59:45 10° WNW 01:10:26 46° NNE 01:21:37 10° E visible
20 Mar 8.1 03:13:11 10° NW 03:24:40 80° NE 03:36:42 10° SE visible
20 Mar 8.4 05:26:00 10° NW 05:36:21 41° WSW 05:47:08 10° S visible
20 Mar 7.9 19:54:31 10° SSW 20:05:22 76° SE 20:16:36 10° NE visible
20 Mar 8.6 22:07:54 10° WSW 22:18:35 53° NNW 22:29:45 10° NE visible
